Hourly Data Report for June 19, 2021

POND INLET A
NUNAVUT
Current Station Operator: NAVCAN

72°41'22.000" N
77°58'08.000" W
61.60 m
2403206
71095
YIO

Download Data

Hourly Data (June 2021)
Hourly Data Report for June 19, 2021
TIME
LST
Temp Definition
°C
Dew Point Definition
°C
Rel Hum Definition
%
Precip. Amount Definition
mm

Wind Dir Definition
10's deg

Wind Spd Definition
km/h
Visibility Definition
km
Stn Press Definition
kPa
Hmdx Definition


Wind Chill Definition


Weather Definition


00:00 1.5 -2.3 76 0.0 6 37 16.1 100.20     LegendNANA
01:00 2.0 -2.4 73 0.0 4 34 16.1 100.23     LegendNANA
02:00 1.9 -2.3 74 0.0 5 32 16.1 100.21     LegendNANA
03:00 2.2 -2.0 74 0.0 6 32 16.1 100.21     LegendNANA
04:00 2.2 -1.7 76 0.0 5 41 16.1 100.22     LegendNANA
05:00 2.3 -1.4 77 0.0 5 37 16.1 100.20     LegendNANA
06:00 2.3 -0.9 79 0.0 5 34 16.1 100.19     LegendNANA
07:00 2.8 -1.1 76 0.0 5 34 16.1 100.19     LegendNANA
08:00 3.4 -0.6 75 0.0 5 26 16.1 100.19     LegendNANA
09:00 3.5 -1.1 72 0.0 5 28 16.1 100.18     LegendNANA
10:00 3.5 -1.4 70 0.0 6 28 16.1 100.17     LegendNANA
11:00 3.1 -0.7 76 0.0 4 28 16.1 100.17     LegendNANA
12:00 3.8 -0.7 73 0.0 6 30 16.1 100.14     LegendNANA
13:00 3.9 -0.6 72 0.0 5 34 16.1 100.13     LegendNANA
14:00 4.8 -0.6 68 0.0 5 32 16.1 100.13     LegendNANA
15:00 4.2 -0.8 70 0.0 6 26 16.1 100.13     LegendNANA
16:00 4.4 -0.8 69 0.0 6 24 16.1 100.15     LegendNANA
17:00 3.9 -0.4 74 0.0 6 22 16.1 100.17     LegendNANA
18:00 4.3 -0.7 70 0.0 6 24 16.1 100.18     LegendNANA
19:00 4.5 -0.7 69 0.0 6 22 16.1 100.19     LegendNANA
20:00 4.4 -0.6 70 0.0 5 22 16.1 100.19     LegendNANA
21:00 4.2 -0.6 71 0.0 6 17 16.1 100.21     LegendNANA
22:00 4.0 -0.5 73 0.0 5 18 16.1 100.22     LegendNANA
23:00 3.9 -0.4 74 0.0 5 15 16.1 100.23     LegendNANA

Notes on Data Quality.

Legend

  • E = Estimated
  • M = Missing
  • NA = Not Available*
  • [empty] = Indicates an unobserved value
Date modified: